User: anonymous
Location: Cherry Springs State Park
(41.6616°N, 77.8240°W)
Time: 21:42:27
(UTC-04:00)
Language:

Cosmos 1437 - Orbit

View from above orbital plane
View from above orbital plane
View from above satellite
View from above satellite

Ground track
Ground track

The orbit data is extracted from the following two-line orbital elements,

1 13770U 83003A   14211.76658972  .00005644  00000-0  18455-3 0  6106
2 13770 081.1677 344.1203 0010191 330.5126 147.1917 15.31485942724240
Epoch (UTC): 30 July 2014 18:23:53
Eccentricity: 0.0010191
inclination: 81.1677°
perigee height: 464 km
apogee height: 478 km
right ascension of ascending node: 344.1203°
argument of perigee: 330.5126°
revolutions per day: 15.31485942
mean anomaly at epoch: 147.1917°
orbit number at epoch: 72424

The dashed part of the orbit path shows where the satellite is in the earth's shadow,  

DLR